Погода в Эвенесе

Норвегия     68°27′33″N   16°41′20″E
темп.,
°C
ветер,
м/с
пор.,
м/с
влажн.,
%
обл.,
%
осадки,
мм/ч
давл.,
гПа
погр.,
м
9 мая, вс
вс923:000ююз2599100 0.4 1004316
02:000ююз2699100 1.4 1005399
05:000ююз3799100 1.6 1004381
08:00+1ююз369893 3.2 1005276
11:00+1ююз379187 1.1 1005710
14:00+2юз499093 2.3 1006782
17:00+2юз389190 1.6 1006673
20:00+1юз1493100 4.6 1007295
10 мая, пн
пн1023:00+1ююз129695 1.5 1007135
02:000юв128991 1.6 100878
05:00−1вюв11849 0.0 100763
08:00+1св11784 0.0 1008189
11:00+3св11777 0.0 1009436
14:00+4св227320 0.0 1010650
17:00+4св22747 0.0 1012594
20:00+2всв22898 0.0 101389
11 мая, вт
вт1123:00−1св22915 0.0 101353
02:00−2всв228859 0.0 101358
05:00−1св2282100 0.0 1011112
08:00+1св2375100 0.0 1010189
11:00+2св1281100 0.3 1010355
14:00+2с1298100 0.9 1013182
17:00+2ссв0199100 0.4 1015120
20:00+2всв1199100 0.5 101790
12 мая, ср
ср1223:00+1св1199100 0.0 101959
02:00+1св1196100 0.0 101942
05:00+2св129199 0.0 102038
08:00+4в128046 0.0 1019124
11:00+7в22716 0.0 1019212
14:00+8вюв3377100 0.0 1018319
17:00+7вюв2483100 0.0 1018190
20:00+6в2388100 0.0 101788
13 мая, чт
чт1323:00+4всв2390100 0.0 101551
02:00+4в2289100 0.0 101440
05:00+5в2294100 0.8 101345
08:00+5вюв1192100 0.9 101228
11:00+6юз1190100 0.1 101364
14:00+6ююз1295100 0.6 101475
17:00+6юз1297100 0.6 101467
20:00+5ююз1299100 1.3 101442